Regional Weather Roundup
Issued by NWS

Home | Current Version | Previous Version | Graphics & Text | Print | Product List | Glossary On
Versions: 1 2 3 4 5 6 7 8 9 10 11 12 13 14 15 16 17 18 19 20 21 22 23 24 25 26 27 28 29 30 31 32 33 34 35 36 37 38 39 40 41 42 43 44 45 46 47 48 49 50
998
ASUS43 KLSX 210507
RWRMO

WEATHER SUMMARY FOR MISSOURI
NATIONAL WEATHER SERVICE SPRINGFIELD MO
1200 AM CDT SAT APR 21 2018

NOTE: "FAIR" INDICATES FEW OR NO CLOUDS BELOW 12,000 FEET WITH NO
       SIGNIFICANT WEATHER AND/OR OBSTRUCTIONS TO VISIBILITY.
       CURRENT SKY AND/OR WEATHER CONDITIONS ARE NOT AVAILABLE FOR
       CHILLICOTHE AND FARMINGTON.

MOZ001>031-035>038-043-044-053-054-210600-
...NORTHERN AND WESTERN MISSOURI...

CITY           SKY/WX    TMP DP  RH WIND       PRES   REMARKS
KANSAS CTY INT CLOUDY    53  24  32 E13       30.26R
KANSAS C DTWN  CLOUDY    57  23  26 NE8       30.25R
LEE`S SUMMIT   MOCLDY    55  22  27 E10       30.25R
ST JOSEPH      MOCLDY    55  22  27 E10       30.29R
CHILLICOTHE      N/A     53  21  28 E7        30.31R
KIRKSVILLE     PTCLDY    48  24  39 E8        30.33F

$$
MOZ066>068-077>081-088>096-101>105-210600-
...SOUTHWEST MISSOURI...

CITY           SKY/WX    TMP DP  RH WIND       PRES   REMARKS
SPRINGFIELD    CLOUDY    55  19  24 SE14G22   30.21S
JOPLIN         CLOUDY    57  22  25 E7        30.20R
BRANSON        MOCLDY    50  23  34 E12       30.22F

$$
MOZ032>034-039>042-045>050-055>058-069>072-210600-
...CENTRAL MISSOURI...

CITY           SKY/WX    TMP DP  RH WIND       PRES   REMARKS
COLUMBIA       CLOUDY    50  23  34 E9        30.29F
JEFFERSON CITY CLOUDY    54  23  30 E9        30.29F
SEDALIA        CLOUDY    55  25  31 E13       30.26S
WHITEMAN AFB   CLOUDY    52  23  32 E9        30.21R
WARRENSBURG    MOCLDY    52  23  32 NE10      30.25R
OSAGE BEACH    PTCLDY    54  25  32 E12       30.28S

$$
MOZ051-052-059>065-210600-
...EAST CENTRAL MISSOURI...

CITY           SKY/WX    TMP DP  RH WIND       PRES   REMARKS
ST LOUIS INTL  PTCLDY    49  26  41 E5        30.35F
SPIRIT OF STL  MOCLDY    42  32  67 CALM      30.33F
ST CHARLES     CLOUDY    43  28  55 E8        30.34F

$$
MOZ072>076-082>087-097>100-106>115-210600-
...SOUTH CENTRAL AND SOUTHEAST MISSOURI...

CITY           SKY/WX    TMP DP  RH WIND       PRES   REMARKS
CAPE GIRARDEAU FAIR      43  33  68 E5        30.32F
FARMINGTON     CLOUDY    45  29  53 E6        30.33F
POPLAR BLUFF   FAIR      51  35  54 NE8       30.30S
WEST PLAINS    CLOUDY    52  24  33 E8        30.27S

$$




USA.gov is the U.S. government's official web portal to all federal, state and local government web resources and services.